Ocean City, MD

6:28 PM EDT on April 29, 2017 (GMT -0400)
Ocean City Municipal

Weather History for KOXB - February, 2013

Change the Weather History Date:

Wednesday, February 20, 2013

  Actual Average (KSBY) Record (KSBY)
Temperature  
Mean Temperature 34 °F -  
Max Temperature 39 °F 49 °F 75 °F (1930)
Min Temperature 27 °F 29 °F -3 °F (2015)
Degree Days  
Heating Degree Days 32    
Moisture  
Dew Point 19 °F    
Average Humidity 55    
Maximum Humidity 89    
Minimum Humidity 39    
Precipitation  
Precipitation 0.00 in - - ()
Sea Level Pressure  
Sea Level Pressure 29.98 in    
Wind  
Wind Speed 8 mph (NW)    
Max Wind Speed 17 mph    
Max Gust Speed 30 mph    
Visibility 10 miles    
Events      
Averages and records for this station are not official NWS values.
T = Trace of Precipitation, MM = Missing Value Source: NWS Daily Summary

Daily Weather History Graph

Daily Weather History Graph

Search for Another Location

Airport or City:

Trip Planner

Search our weather history database for the weather conditions in past years. The results will help you decide how hot, cold, wet, or windy it might be!

Date:

Astronomy

Feb. 20, 2013 Rise Set
Actual Time 6:44 AM EST 5:44 PM EST
Civil Twilight 6:17 AM EST 6:11 PM EST
Nautical Twilight 5:46 AM EST 6:42 PM EST
Astronomical Twilight 5:16 AM EST 7:12 PM EST
Moon 1:06 PM EST (2/20) 3:00 AM EST (2/20)
Length of Visible Light 11h 53m
Length of Day
11h 00m
Waxing Gibbous, 76% of the Moon is Illuminated
Feb 20
Waxing Gibbous
Feb 25
Full
Mar 4
Last Quarter
Mar 11
New
Mar 19
First Quarter

Hourly Weather History & Observations

Time (EST) Temp. Windchill Dew Point Humidity Pressure Visibility Wind Dir Wind Speed Gust Speed Precip Events Conditions
12:53 AM 39.0 °F 36.8 °F 36.0 °F 89% 29.84 in 10.0 mi WNW 3.5 mph - N/A   Partly Cloudy
1:53 AM 37.9 °F 32.1 °F 28.9 °F 70% 29.86 in 10.0 mi NW 8.1 mph - N/A   Clear
2:53 AM 36.0 °F 31.1 °F 27.0 °F 70% 29.87 in 10.0 mi WNW 5.8 mph - N/A   Clear
3:53 AM 35.1 °F 30.1 °F 25.0 °F 67% 29.88 in 10.0 mi WNW 5.8 mph - N/A   Clear
4:53 AM 33.1 °F 30.0 °F 23.0 °F 66% 29.89 in 10.0 mi WNW 3.5 mph - N/A   Clear
5:53 AM 32.0 °F 27.5 °F 23.0 °F 69% 29.92 in 10.0 mi WNW 4.6 mph - N/A   Clear
6:53 AM 30.9 °F 26.2 °F 21.9 °F 69% 29.96 in 10.0 mi NW 4.6 mph - N/A   Clear
7:53 AM 34.0 °F 28.0 °F 21.0 °F 59% 29.98 in 10.0 mi NW 6.9 mph - N/A   Clear
8:53 AM 35.1 °F 25.9 °F 19.0 °F 52% 29.98 in 10.0 mi NW 13.8 mph 20.7 mph N/A   Clear
9:53 AM 37.0 °F 31.0 °F 19.0 °F 48% 29.98 in 10.0 mi NW 8.1 mph 23.0 mph N/A   Clear
10:53 AM 37.9 °F 29.2 °F 19.0 °F 47% 29.99 in 10.0 mi WNW 15.0 mph 23.0 mph N/A   Clear
11:53 AM 39.0 °F 29.9 °F 19.0 °F 45% 29.99 in 10.0 mi West 17.3 mph 25.3 mph N/A   Clear
12:53 PM 39.0 °F 29.9 °F 18.0 °F 43% 29.97 in 10.0 mi WNW 17.3 mph 28.8 mph N/A   Clear
1:53 PM 39.0 °F 29.9 °F 18.0 °F 43% 29.96 in 10.0 mi WNW 17.3 mph 29.9 mph N/A   Partly Cloudy
2:53 PM 37.0 °F 28.1 °F 16.0 °F 42% 29.98 in 10.0 mi WNW 15.0 mph 27.6 mph N/A   Scattered Clouds
3:53 PM 39.0 °F 31.8 °F 16.0 °F 39% 29.99 in 10.0 mi NW 11.5 mph 19.6 mph N/A   Clear
4:53 PM 37.0 °F 28.9 °F 17.1 °F 44% 29.99 in 10.0 mi NNW 12.7 mph 20.7 mph N/A   Clear
5:53 PM 34.0 °F 26.6 °F 16.0 °F 48% 30.02 in 10.0 mi NW 9.2 mph - N/A   Clear
6:53 PM 33.1 °F 25.5 °F 17.1 °F 52% 30.05 in 10.0 mi NNW 9.2 mph - N/A   Clear
7:53 PM 30.9 °F 22.2 °F 16.0 °F 54% 30.08 in 10.0 mi NNW 10.4 mph - N/A   Clear
8:53 PM 30.0 °F 19.5 °F 14.0 °F 51% 30.08 in 10.0 mi NW 13.8 mph 24.2 mph N/A   Clear
9:53 PM 28.9 °F 18.2 °F 12.9 °F 51% 30.11 in 10.0 mi NNW 13.8 mph 20.7 mph N/A   Clear
10:53 PM 28.0 °F 18.1 °F 10.9 °F 49% 30.11 in 10.0 mi NNW 11.5 mph 18.4 mph N/A   Clear
11:53 PM 27.0 °F 18.7 °F 12.0 °F 53% 30.12 in 10.0 mi NW 8.1 mph - N/A   Clear